Location: Milton
(43.5183°N, 79.8775°W)
Time: 11:49:23
(UTC+00:00)

UWE-3 - Visible Passes

Search period start: 28 March 2023 00:00
Search period end: 07 April 2023 00:00
Orbit: 580 x 670 km, 97.7° (Epoch: 27 March)

Date Brightness Start Highest point End Pass type
(mag) Time Alt. Az. Time Alt. Az. Time Alt. Az.
28 Mar ? 08:25:48 10° N 08:29:01 46° N 08:29:01 46° N visible
29 Mar ? 07:09:49 10° NE 07:10:49 13° ENE 07:10:49 13° ENE visible
29 Mar ? 08:44:38 10° N 08:48:06 44° NNW 08:48:06 44° NNW visible
30 Mar ? 07:27:47 10° NE 07:29:53 20° ENE 07:29:53 20° ENE visible
30 Mar ? 09:03:37 10° N 09:07:09 33° NW 09:07:09 33° NW visible
31 Mar ? 07:46:07 10° NNE 07:48:56 30° ENE 07:48:56 30° ENE visible
31 Mar ? 09:22:46 10° NNW 09:26:11 23° WNW 09:26:11 23° WNW visible
01 Apr ? 08:04:38 10° NNE 08:07:58 45° NE 08:07:58 45° NE visible
01 Apr ? 09:42:11 10° NNW 09:44:45 15° WNW 09:45:14 15° WNW visible
02 Apr ? 08:23:18 10° NNE 08:27:00 61° N 08:27:00 61° N visible
03 Apr ? 07:07:28 10° ENE 07:08:45 13° ENE 07:08:45 13° ENE visible
03 Apr ? 08:42:05 10° N 08:46:01 53° NW 08:46:01 53° NW visible
04 Apr ? 07:25:17 10° NE 07:27:44 20° ENE 07:27:44 20° ENE visible
04 Apr ? 09:01:01 10° N 09:05:01 35° WNW 09:05:01 35° WNW visible
05 Apr ? 07:43:32 10° NNE 07:46:45 31° ENE 07:46:45 31° ENE visible
05 Apr ? 09:20:05 10° NNW 09:23:33 23° WNW 09:24:01 23° WNW visible
06 Apr ? 08:01:59 10° NNE 08:05:44 50° ENE 08:05:44 50° ENE visible
06 Apr ? 09:39:26 10° NNW 09:42:01 16° WNW 09:43:00 15° WNW visible
